Key West, FL

5:40 PM EDT on September 21, 2017 (GMT -0400)
Key West International

Weather History for KEYW - October, 2011

Change the Weather History Date:

Tuesday, October 25, 2011

  Actual Average Record
Temperature  
Mean Temperature 77 °F 79 °F  
Max Temperature 82 °F 83 °F 89 °F (1951)
Min Temperature 72 °F 75 °F 61 °F (1903)
Degree Days  
Heating Degree Days 0 0  
Month to date heating degree days 0 0  
Since 1 July heating degree days 0 0  
Cooling Degree Days 12 14  
Month to date cooling degree days 366 392  
Year to date cooling degree days 4427 4127  
Growing Degree Days 27 (Base 50)    
Moisture  
Dew Point 66 °F    
Average Humidity 73    
Maximum Humidity 84    
Minimum Humidity 62    
Precipitation  
Precipitation 0.00 in 0.14 in 3.69 in (1927)
Month to date precipitation 16.90 4.21  
Year to date precipitation 41.86 34.59  
Snow  
Snow 0.00 in - - ()
Month to date snowfall 0.0  
Since 1 July snowfall 0.0  
Since 1 September snowfall 0.0  
Snow Depth 0.00 in    
Sea Level Pressure  
Sea Level Pressure 30.04 in    
Wind  
Wind Speed 12 mph (NE)    
Max Wind Speed 18 mph    
Max Gust Speed 25 mph    
Visibility 10 miles    
Events      
T = Trace of Precipitation, MM = Missing Value Source: NWS Daily Summary

Daily Weather History Graph

Daily Weather History Graph

Search for Another Location

Airport or City:

Trip Planner

Search our weather history database for the weather conditions in past years. The results will help you decide how hot, cold, wet, or windy it might be!

Date:

Astronomy

Oct. 25, 2011 Rise Set
Actual Time 7:29 AM EDT 6:52 PM EDT
Civil Twilight 7:06 AM EDT 7:15 PM EDT
Nautical Twilight 6:39 AM EDT 7:42 PM EDT
Astronomical Twilight 6:13 AM EDT 8:08 PM EDT
Moon 6:04 AM EDT (10/25) 5:52 PM EDT (10/25)
Length of Visible Light 12h 08m
Length of Day
11h 22m
Waning Crescent, 2% of the Moon is Illuminated
Oct 25
Waning Crescent
Oct 26
New
Nov 2
First Quarter
Nov 10
Full
Nov 18
Last Quarter

Hourly Weather History & Observations

Time (EDT) Temp. Heat Index Dew Point Humidity Pressure Visibility Wind Dir Wind Speed Gust Speed Precip Events Conditions
12:53 AM 75.0 °F - 63.0 °F 66% 30.05 in 10.0 mi NNE 12.7 mph - N/A   Clear
1:53 AM 73.9 °F - 62.1 °F 66% 30.04 in 10.0 mi NNE 12.7 mph 20.7 mph N/A   Clear
2:53 AM 73.0 °F - 62.1 °F 68% 30.04 in 10.0 mi NE 10.4 mph 20.7 mph N/A   Clear
3:53 AM 73.0 °F - 64.0 °F 73% 30.04 in 10.0 mi NE 12.7 mph - N/A   Mostly Cloudy
4:53 AM 72.0 °F - 66.0 °F 81% 30.03 in 10.0 mi NE 13.8 mph 23.0 mph N/A   Overcast
5:53 AM 72.0 °F - 63.0 °F 73% 30.03 in 10.0 mi NE 13.8 mph 19.6 mph N/A   Overcast
6:53 AM 72.0 °F - 63.0 °F 73% 30.04 in 10.0 mi NNE 15.0 mph 19.6 mph N/A   Clear
7:53 AM 72.0 °F - 62.1 °F 71% 30.07 in 10.0 mi NNE 13.8 mph - N/A   Clear
8:53 AM 73.0 °F - 63.0 °F 71% 30.07 in 10.0 mi NNE 13.8 mph - N/A   Partly Cloudy
9:53 AM 75.0 °F - 64.9 °F 71% 30.08 in 10.0 mi NNE 16.1 mph 24.2 mph N/A   Clear
10:53 AM 77.0 °F - 66.9 °F 71% 30.08 in 10.0 mi NNE 12.7 mph 21.9 mph N/A   Clear
11:53 AM 77.0 °F - 68.0 °F 74% 30.09 in 10.0 mi NNE 11.5 mph 18.4 mph N/A   Clear
12:53 PM 78.1 °F - 68.0 °F 71% 30.07 in 10.0 mi NE 12.7 mph 19.6 mph N/A   Scattered Clouds
1:53 PM 78.1 °F - 66.9 °F 68% 30.05 in 10.0 mi NNE 12.7 mph - N/A   Overcast
2:53 PM 81.0 °F 84.1 °F 69.1 °F 67% 30.02 in 10.0 mi NE 9.2 mph - N/A   Partly Cloudy
3:53 PM 82.0 °F 85.5 °F 69.1 °F 65% 30.01 in 10.0 mi ENE 13.8 mph 19.6 mph N/A   Partly Cloudy
4:53 PM 81.0 °F 83.3 °F 66.9 °F 62% 30.01 in 10.0 mi ENE 11.5 mph 23.0 mph N/A   Clear
5:53 PM 80.1 °F 82.3 °F 66.9 °F 64% 30.01 in 10.0 mi East 15.0 mph 23.0 mph N/A   Clear
6:53 PM 78.1 °F - 66.9 °F 68% 30.03 in 10.0 mi ENE 13.8 mph 18.4 mph N/A   Partly Cloudy
7:53 PM 77.0 °F - 66.9 °F 71% 30.03 in 10.0 mi ENE 11.5 mph 18.4 mph N/A   Clear
8:53 PM 77.0 °F - 68.0 °F 74% 30.04 in 10.0 mi NE 9.2 mph 17.3 mph N/A   Clear
9:53 PM 75.9 °F - 66.9 °F 74% 30.04 in 10.0 mi NE 11.5 mph 18.4 mph N/A   Clear
10:53 PM 75.9 °F - 68.0 °F 76% 30.04 in 10.0 mi NE 11.5 mph - N/A   Clear
11:53 PM 75.9 °F - 68.0 °F 76% 30.04 in 10.0 mi NE 10.4 mph - N/A   Overcast